Regional Weather Roundup
Issued by NWS Charleston, SC

Current Version | Previous Version | Graphics & Text | Print | Product List | Glossary On
Versions: 1 2 3 4 5 6 7 8 9 10 11 12 13 14 15 16 17 18 19 20 21 22 23 24 25 26 27 28 29 30 31 32 33 34 35 36 37 38 39 40 41 42 43 44 45 46 47 48 49 50
183 ASUS42 KCHS 261927 RWRCHS REGIONAL WEATHER ROUNDUP NATIONAL WEATHER SERVICE CHARLESTON SC 300 PM EDT MON JUN 26 2017 NOTE: "FAIR" INDICATES FEW OR NO CLOUDS BELOW 12,000 FEET WITH NO SIGNIFICANT WEATHER AND/OR OBSTRUCTIONS TO VISIBILITY. NOT ALL STATIONS ARE QUALITY CONTROLLED. USE DATA WITH CAUTION... ESPECIALLY DEWPOINT OBSERVATIONS. SCZ027-030-031-034>040-042>050-262000- ...SOUTHEAST SOUTH CAROLINA... CITY SKY/WX TMP DP RH WIND PRES REMARKS N CHARLESTON PTSUNNY 83 66 56 NE7 30.06F WATERFRONT PRK N/A 82 72 71 NE10 30.05F JOHNS ISLAND FAIR 84 72 65 NE10 30.06S PINOPOLIS N/A 81 64 57 N7 30.02F MONCKS CORNER FAIR 82 59 44 N9 30.08S SUMMERVILLE FAIR 81 63 54 N10 30.08F BEAUFORT MCAS CLOUDY 86 71 60 NE8 30.06F HX 91 BEAUFORT ARPT MOCLDY 82 70 65 NE7 30.06S HILTON HEAD IS PTSUNNY 81 72 74 NE8 30.07F WALTERBORO CLOUDY 82 66 57 NE8 30.08F ALLENDALE MOCLDY 82 61 47 VRB7 30.08F ...SOUTHERN MIDLANDS AND PEE DEE... CITY SKY/WX TMP DP RH WIND PRES REMARKS GEORGETOWN FAIR 82 55 39 NE7 30.08F KINGSTREE FAIR 82 57 42 CALM 30.08F ORANGEBURG MOSUNNY 83 56 39 E8 30.10F BARNWELL FAIR 86 59 39 VRB6 30.09F AIKEN FAIR 82 55 39 E7 30.13F MANNING FAIR 82 63 51 NE14G22 30.08F COLUMBIA MOSUNNY 87 53 31 N7 30.08F SUMTER SUNNY 85 52 31 E7 30.07F FLORENCE SUNNY 85 53 33 SE3 30.09F MYRTLE BEACH SUNNY 84 61 45 NE8 30.08F N MYRTLE BEACH CLOUDY 84 61 45 NE9 30.07F $$ GAZ063-065-086>088-099>101-113>116-118-119-134>141-150-262000- ...SOUTHEAST GEORGIA... CITY SKY/WX TMP DP RH WIND PRES REMARKS SAVANNAH ARPT CLOUDY 88 71 57 N9 30.05F HX 94 HUNTER AAF CLOUDY 85 74 68 NE8 30.02F HX 93 FORT STEWART CLOUDY 85 72 63 NE6 30.02F HX 91 STATESBORO CLOUDY 83 69 62 NE7 30.08S SYLVANIA CLOUDY 84 70 61 NE6 30.09S CLAXTON FAIR 85 71 63 N6 30.06S HX 90 ...CSRA...CENTRAL AND FAR SOUTHEAST GEORGIA... CITY SKY/WX TMP DP RH WIND PRES REMARKS THOMSON MOSUNNY 83 58 43 E5 30.15F AUGUSTA-BUSH SUNNY 89 57 33 N9 30.08F AUGUSTA-DANIEL SUNNY 86 53 32 MISG 30.10F SWAINSBORO FAIR 82 63 51 E9 30.10S VIDALIA MOSUNNY 88 72 58 N7 30.07S HX 94 EASTMAN FAIR 86 59 39 NE9 30.09F HAZLEHURST MOCLDY 89 74 60 N6 30.04S HX 97 ALMA CLOUDY 87 70 56 CALM 30.04F HX 92 WAYCROSS MOSUNNY 87 78 73 N3 30.04F HX 99 JESUP FAIR 84 72 65 CALM 30.03F BAXLEY FAIR 90 75 62 NE7 30.03F HX 100 BRUNSWICK CLOUDY 77 75 94 NE15 30.05S SAINT SIMONS LGT RAIN 79 76 90 NE12 30.04S $$ SCZ027-028-034-036>038-045-046-048>050-GAZ119-141-262000- ...LAKE AND SUPPLEMENTAL COASTAL OBSERVATIONS... STATION/POSITION TIME TEMP WIND PRES WAVE SWELL AIR SEA DIR/SP/G HT/PER HT/PER/DIR (UTC) (F) (DEG/KT/KT) (MB) (FT/S) (FT/S/D) WINYAH BAY 1845 80 50/ 10 1018.0F LAKE MURRAY 1850 84 160/ 3/ 4 1017.9F ACE BASIN NERRS 1845 85 20/ 2 1018.0F FORT PULASKI 1900 79 84 70/ 12/ 15 1018.0 SAPELO ISLAND 1900 76 CALM 1017.0 $$ ANZ835-935-AMZ111-154-330-350-352-354-370-450-454-472-262000- ...C-MAN AND BUOY OBSERVATIONS... STATION/POSITION TIME TEMP WIND PRES WAVE SWELL AIR SEA DIR/SP/G HT/PER HT/PER/DIR (UTC) (F) (DEG/KT/KT) (MB) (FT/S) (FT/S/D) BUOY 41004 1910 78 81 30/ 14/ 16 1017.1 BUOY 41008 1850 80 83 20/ 8/ 10 1017.1F 1/ 9 2/110/ 9 FOLLY BEACH CMAN 1900 81 50/ 14/ 16 1018.5F CAPERS NEARSHORE 1908 85 83 50/ 16/ 19 1017.7F FRIPP NEARSHORE 1908 81 83 60/ 16/ 19 1017.5F STATION/POSITION TIME TEMP WIND PRES WAVE SWELL AIR SEA DIR/SP/G HT/PER HT/PER/DIR (UTC) (F) (DEG/KT/KT) (MB) (FT/S) (FT/S/D) 5E ST. MARYS GA 1900 82 N/A 1/ 8 FRYING PAN BUOY 1910 78 80 40/ 8/ 10 1017.5 BUOY 41025 1850 78 81 30/ 8/ 12 1018.0F 2/ 8 2/ 80/ 8 CAPE LOOKOUT NC 1900 78 110/ 4/ 5 1017.9F BUOY 41002 1850 78 81 310/ 14/ 16 1018.5F 3/ 6 2/120/ 8 BUOY 41010 1910 81 84 190/ 12/ 16 1017.5 ST AUGUSTINE FL 1900 79 80 110/ 11/ 12 1017.5F $$

USA.gov is the U.S. government's official web portal to all federal, state and local government web resources and services.